FW4002 Weather Reports


time (UTC)temp
F
wind
direction
speed
knots
gust
knots
rain 1hr
in
rain 24hr
in
rain mn
in
humidity
%
barometer
mb
20260507023603 49 237 0.0 0.9 0.00 0.31 0.21 67 1014.5
20260507022703 50 237 0.0 1.7 0.00 0.31 0.21 66 1014.5
20260507021803 50 226 0.0 1.7 0.00 0.32 0.21 65 1014.4
20260507020924 50 232 0.0 1.7 0.00 0.32 0.21 65 1014.4
20260507020003 50 0 0.0 0.0 0.00 0.32 0.21 65 1014.4
20260507015403 50 0 0.0 0.0 0.00 0.33 0.21 65 1014.3
20260507014503 50 269 0.0 0.9 0.00 0.34 0.21 64 1014.3
20260507013624 50 274 0.0 0.9 0.00 0.34 0.21 63 1014.2
20260507012724 51 269 0.0 0.9 0.00 0.35 0.21 63 1014.2
20260507011803 51 272 0.0 0.9 0.00 0.36 0.21 62 1014.1
20260507010924 51 272 0.0 0.9 0.00 0.37 0.21 61 1013.8
20260507010004 51 272 0.0 1.7 0.00 0.39 0.21 60 1013.6
20260507005403 51 272 0.0 0.9 0.00 0.39 0.21 60 1013.7
20260507004503 52 273 0.0 0.9 0.00 0.40 0.21 59 1013.7
20260507003603 52 279 0.0 1.7 0.00 0.42 0.21 59 1013.7
20260507002703 52 262 0.0 1.7 0.00 0.43 0.21 59 1013.7
20260507001803 52 229 0.0 1.7 0.00 0.44 0.21 57 1013.7
20260507000903 53 252 0.0 1.7 0.00 0.46 0.21 56 1013.6
20260507000004 53 251 0.9 2.6 0.00 0.47 0.21 55 1013.6
20260506235403 54 268 0.9 2.6 0.00 0.48 0.21 54 1013.5
20260506234503 54 255 0.9 5.2 0.00 0.48 0.21 52 1013.5
20260506233624 54 253 1.7 7.8 0.00 0.49 0.21 51 1013.7
20260506232703 55 261 1.7 7.8 0.00 0.50 0.21 51 1013.7
20260506231824 56 242 1.7 7.0 0.00 0.51 0.21 48 1013.7
20260506230903 56 231 1.7 6.1 0.00 0.52 0.21 48 1013.8
20260506230004 55 228 2.6 7.0 0.00 0.53 0.21 50 1013.7
20260506225425 55 214 2.6 8.7 0.00 0.54 0.21 49 1013.8
20260506224503 55 266 1.7 6.1 0.00 0.55 0.21 49 1013.9
20260506223624 55 248 2.6 8.7 0.00 0.57 0.21 51 1014.0
20260506222703 54 252 1.7 5.2 0.00 0.58 0.21 52 1013.8
20260506221803 54 263 2.6 8.7 0.00 0.59 0.21 49 1013.8
20260506220903 54 265 1.7 8.7 0.00 0.59 0.21 50 1013.8
20260506220024 54 289 0.9 5.2 0.00 0.60 0.21 51 1013.7
20260506215403 54 277 1.7 7.0 0.00 0.60 0.21 50 1013.8
20260506214503 54 294 1.7 4.3 0.00 0.61 0.21 50 1013.8
20260506213603 54 307 2.6 7.8 0.00 0.62 0.21 49 1013.7
20260506212703 54 295 2.6 7.8 0.00 0.62 0.21 49 1013.8
20260506211803 54 305 2.6 7.8 0.00 0.63 0.21 49 1013.7
20260506210903 54 281 1.7 7.0 0.00 0.63 0.21 50 1013.6
20260506210004 54 296 2.6 6.1 0.00 0.63 0.21 48 1013.6
20260506205403 54 310 2.6 6.1 0.00 0.64 0.21 48 1013.5
20260506204503 54 299 1.7 5.2 0.00 0.64 0.21 48 1013.6
20260506203603 54 280 1.7 6.1 0.00 0.65 0.21 47 1013.5
20260506202703 54 271 2.6 7.0 0.00 0.66 0.21 46 1013.6
20260506201803 54 295 2.6 7.8 0.00 0.67 0.21 46 1013.7
20260506200903 55 289 1.7 7.0 0.00 0.69 0.21 47 1013.7
20260506200004 55 295 2.6 7.0 0.00 0.71 0.21 47 1013.7
20260506195403 55 295 2.6 7.8 0.00 0.73 0.21 47 1013.7
20260506194503 55 275 2.6 7.8 0.00 0.75 0.21 47 1013.6
20260506193603 55 301 2.6 9.6 0.00 0.77 0.21 46 1013.6
20260506192703 55 291 1.7 7.0 0.00 0.78 0.21 46 1013.6
20260506191803 55 282 1.7 7.0 0.00 0.80 0.21 48 1013.6
20260506190903 55 311 3.5 7.8 0.00 0.81 0.21 46 1013.6
20260506190004 56 318 2.6 8.7 0.00 0.81 0.21 46 1013.6
20260506185403 56 241 3.5 7.8 0.00 0.81 0.21 46 1013.6
20260506184503 55 241 1.7 7.0 0.00 0.82 0.21 51 1013.5
20260506183603 55 286 1.7 5.2 0.00 0.83 0.21 49 1013.6
20260506182703 55 310 1.7 7.8 0.00 0.84 0.21 48 1013.6
20260506181803 55 308 1.7 7.8 0.00 0.86 0.21 48 1013.7
20260506180903 55 305 2.6 7.0 0.00 0.88 0.21 46 1013.6
20260506180004 56 289 2.6 6.1 0.00 0.89 0.21 48 1013.6
20260506175403 56 295 1.7 6.1 0.00 0.89 0.21 47 1013.4
20260506174503 55 306 1.7 3.5 0.00 0.89 0.21 49 1013.6
20260506173603 55 319 1.7 6.1 0.00 0.90 0.21 50 1013.6
20260506172703 54 290 1.7 5.2 0.00 0.91 0.21 48 1013.6
20260506171803 54 295 1.7 5.2 0.00 0.92 0.21 49 1013.6
20260506170903 54 301 1.7 7.0 0.00 0.93 0.21 51 1013.8
20260506170003 53 342 1.7 4.3 0.00 0.94 0.21 53 1013.7
20260506165403 53 340 1.7 4.3 0.00 0.95 0.21 53 1013.7
20260506164503 53 299 1.7 6.1 0.00 0.96 0.21 52 1013.9
20260506163603 53 301 1.7 7.0 0.00 0.98 0.21 54 1013.9
20260506162703 53 332 2.6 9.6 0.00 1.00 0.21 54 1014.0
20260506161803 53 346 3.5 9.6 0.00 1.00 0.21 52 1014.0
20260506160903 53 313 1.7 6.1 0.00 1.01 0.21 55 1013.9
20260506160004 53 345 2.6 6.1 0.00 1.01 0.21 54 1013.9
20260506155424 53 338 3.5 7.8 0.00 1.01 0.21 53 1014.1
20260506154503 53 331 2.6 7.8 0.00 1.01 0.21 51 1014.0
20260506153603 53 2 2.6 7.0 0.00 1.01 0.21 51 1013.7
20260506152703 53 352 2.6 7.0 0.00 1.01 0.21 51 1013.7
20260506151803 52 358 2.6 7.8 0.00 1.01 0.21 52 1013.6
20260506150903 52 342 3.5 7.8 0.00 1.01 0.21 55 1013.6
20260506150003 52 1 3.5 8.7 0.00 1.01 0.21 56 1013.4
20260506145403 51 348 3.5 8.7 0.00 1.01 0.21 54 1013.5
20260506144503 52 336 3.5 8.7 0.00 1.01 0.21 55 1013.4
20260506143603 52 10 2.6 7.0 0.00 1.01 0.21 60 1013.4
20260506142704 51 19 3.5 9.6 0.00 1.01 0.21 59 1013.2
20260506141824 50 5 4.3 8.7 0.00 1.01 0.21 59 1013.1
20260506140903 50 7 3.5 8.7 0.00 1.01 0.21 63 1013.2
20260506140003 50 350 4.3 8.7 0.00 1.01 0.21 62 1013.0
20260506135425 50 357 3.5 7.8 0.00 1.01 0.21 62 1012.9
20260506134504 49 346 3.5 7.8 0.00 1.01 0.21 64 1012.8
20260506133603 49 353 2.6 8.7 0.00 1.01 0.21 65 1012.9
20260506132703 48 335 3.5 7.8 0.00 1.01 0.21 69 1012.9
20260506131803 48 2 2.6 7.8 0.00 1.01 0.21 75 1012.8
20260506130903 47 352 3.5 8.7 0.00 1.01 0.21 80 1012.5
20260506130003 46 338 2.6 7.0 0.00 1.01 0.21 86 1012.5
20260506125403 46 326 2.6 7.8 0.00 1.01 0.21 90 1012.4
20260506124503 46 320 2.6 5.2 0.00 1.01 0.21 93 1012.3
20260506123603 45 317 1.7 4.3 0.00 1.01 0.21 95 1012.1
20260506122703 45 308 1.7 4.3 0.00 1.01 0.21 94 1012.1
20260506121803 44 302 0.9 4.3 0.00 1.01 0.21 95 1012.1
20260506120903 44 306 0.9 1.7 0.00 1.01 0.21 95 1011.7
20260506120004 44 305 0.0 2.6 0.00 1.01 0.21 95 1011.4
20260506115404 44 305 0.0 1.7 0.00 1.01 0.21 95 1011.6
20260506114524 44 271 0.0 1.7 0.00 1.01 0.21 95 1011.6
20260506113603 44 289 0.0 0.9 0.00 1.01 0.21 95 1011.5
20260506112703 43 318 0.0 0.9 0.00 1.01 0.21 95 1011.3
20260506111803 43 318 0.0 1.7 0.00 1.01 0.21 94 1011.0
20260506110903 43 299 0.0 2.6 0.00 1.01 0.21 94 1010.9
20260506110003 43 266 0.0 1.7 0.00 1.01 0.21 94 1010.6
20260506105424 43 266 0.0 1.7 0.00 1.01 0.21 94 1010.7
20260506104503 43 269 0.0 0.9 0.00 1.01 0.21 94 1010.4
20260506103603 43 262 0.0 2.6 0.00 1.01 0.21 94 1010.6
20260506102703 43 300 0.0 2.6 0.00 1.01 0.21 94 1010.5
20260506101803 43 285 0.9 2.6 0.00 1.01 0.21 94 1010.3
20260506100903 43 256 0.0 2.6 0.00 1.01 0.21 94 1010.2
20260506100004 43 273 0.0 0.9 0.00 1.01 0.21 94 1010.0
20260506095403 43 282 0.0 3.5 0.00 1.01 0.21 94 1009.9
20260506094503 43 280 0.0 1.7 0.00 1.01 0.21 94 1009.9
20260506093603 43 308 0.9 2.6 0.00 1.01 0.21 94 1009.9
20260506092703 43 264 0.0 1.7 0.00 1.01 0.21 94 1010.0
20260506091824 43 0 0.0 0.0 0.00 1.01 0.21 94 1010.0
20260506090903 43 0 0.0 0.0 0.00 1.01 0.21 94 1009.8
20260506090003 43 0 0.0 0.0 0.00 1.01 0.21 94 1009.8
20260506085403 43 0 0.0 0.0 0.00 1.01 0.21 94 1010.0
20260506084503 43 0 0.0 0.0 0.00 1.01 0.21 94 1009.9
20260506083603 43 0 0.0 0.0 0.00 1.01 0.21 94 1009.8
20260506082703 43 0 0.0 0.0 0.00 1.01 0.21 94 1010.1
20260506081824 42 0 0.0 0.0 0.00 1.01 0.21 94 1009.9
20260506080903 42 0 0.0 0.0 0.00 1.01 0.21 94 1009.6
20260506072703 42 0 0.0 0.0 0.05 1.02 0.21 93 1009.3
20260506071803 42 0 0.0 0.0 0.06 1.05 0.21 93 1009.2
20260506070904 42 0 0.0 0.0 0.07 1.07 0.21 93 1009.6
20260506061803 43 256 0.0 0.9 0.05 1.02 0.15 93 1010.1
20260506060903 43 262 0.0 1.7 0.05 1.01 0.14 92 1010.2
20260506050903 43 0 0.0 0.0 0.08 0.96 0.09 91 1009.7
20260506044503 43 0 0.0 0.0 0.07 0.93 0.06 91 1010.0
20260506043603 43 0 0.0 0.0 0.06 0.91 0.04 91 1010.2
20260506042724 43 0 0.0 0.0 0.06 0.90 0.03 91 1010.5
20260506041803 43 41 0.0 0.9 0.06 0.89 0.02 91 1010.2
20260506040924 43 41 0.0 0.9 0.07 0.88 0.01 90 1009.9
20260506040004 44 53 0.0 1.7 0.08 0.87 0.00 91 1009.9
20260506035403 44 55 0.9 1.7 0.08 0.87 0.87 90 1009.9
20260506034524 44 59 0.0 2.6 0.08 0.86 0.86 91 1010.0
20260506033603 44 66 0.0 2.6 0.08 0.85 0.85 90 1009.9
20260506032704 44 0 0.0 0.0 0.07 0.84 0.84 90 1010.0
20260506031803 44 66 0.0 1.7 0.07 0.83 0.83 90 1010.1
20260506030903 44 51 0.0 1.7 0.05 0.81 0.81 90 1010.2
20260506030004 44 15 0.0 1.7 0.03 0.79 0.79 89 1010.1
20260506025403 44 14 0.9 4.3 0.04 0.79 0.79 89 1010.0
20260506024503 44 354 1.7 5.2 0.04 0.78 0.78 90 1009.9